This is the latest recevied weather packets stored in our database for station/object N8QQQ. If no packets are shown the sender has not sent any weather packets the latest 10 day(s).
| Time | Temp. | Humidity | Pressure | Rain* | Wind** | Luminosity | Snow |
|---|---|---|---|---|---|---|---|
| 1777482705 | 6.67° C | 58% | 1014.3 hPa | 0 mm | - | 109 W/m² | - |
| 1777482402 | 6.67° C | 56% | 1014.7 hPa | 0 mm | - | 85 W/m² | - |
| 1777482099 | 6.67° C | 55% | 1014.4 hPa | 0 mm | - | 81 W/m² | - |
| 1777481797 | 6.67° C | 56% | 1014.6 hPa | 0 mm | - | 81 W/m² | - |
| 1777481494 | 6.67° C | 58% | 1014.4 hPa | 0 mm | - | 80 W/m² | - |
| 1777481190 | 6.67° C | 59% | 1014.7 hPa | 0 mm | - | 78 W/m² | - |
| 1777480887 | 6.67° C | 58% | 1014.4 hPa | 0 mm | - | 85 W/m² | - |
| 1777480583 | 6.67° C | 58% | 1014.7 hPa | 0 mm | - | 73 W/m² | - |
| 1777480281 | 6.67° C | 58% | 1014.8 hPa | 0 mm | - | 88 W/m² | - |
| 1777479977 | 7.22° C | 58% | 1014.7 hPa | 0 mm | - | 135 W/m² | - |
| 1777479674 | 7.22° C | 56% | 1014.7 hPa | 0 mm | - | 314 W/m² | - |
| 1777479372 | 7.22° C | 58% | 1015 hPa | 0 mm | - | 483 W/m² | - |
| 1777479068 | 7.22° C | 63% | 1015 hPa | 0 mm | - | 149 W/m² | - |
| 1777478764 | 6.67° C | 64% | 1015 hPa | 0 mm | - | 385 W/m² | - |
| 1777478461 | 6.67° C | 64% | 1015 hPa | 0 mm | - | 358 W/m² | - |
| 1777478158 | 6.67° C | 63% | 1015 hPa | 0 mm | - | 286 W/m² | - |
| 1777477854 | 6.67° C | 63% | 1015.1 hPa | 0 mm | - | 402 W/m² | - |
| 1777477549 | 7.22° C | 66% | 1015.1 hPa | 0 mm | - | 387 W/m² | - |
| 1777477246 | 6.67° C | 66% | 1015.1 hPa | 0 mm | - | 330 W/m² | - |
| 1777476942 | 6.11° C | 69% | 1015 hPa | 0 mm | - | 383 W/m² | - |
| 1777476641 | 6.67° C | 68% | 1015.3 hPa | 0 mm | - | 373 W/m² | - |
| 1777476337 | 6.11° C | 70% | 1015.4 hPa | 0 mm | - | 308 W/m² | - |
| 1777476033 | 5.56° C | 70% | 1015.5 hPa | 0 mm | - | 293 W/m² | - |
| 1777475729 | 5.56° C | 72% | 1015.4 hPa | 0 mm | - | 310 W/m² | - |
| 1777475425 | 6.11° C | 72% | 1015.5 hPa | 0 mm | - | 313 W/m² | - |
* Rain latest hour (hover to see other rain measurements)
** Current wind speed in m/s (hover to see current wind gust speed)